Weather History for Harvey, ND

Change the Weather History Date:

Saturday, October 13, 2012

  Actual Average (KRUG) Record (KRUG)
Temperature  
Mean Temperature 46 °F -  
Max Temperature 59 °F 56 °F 85 °F (1958)
Min Temperature 32 °F 33 °F 15 °F (1979)
Degree Days  
Heating Degree Days 20    
Moisture  
Dew Point 34 °F    
Average Humidity 66    
Maximum Humidity 100    
Minimum Humidity 39    
Precipitation  
Precipitation 0.00 in - - ()
Sea Level Pressure  
Sea Level Pressure 29.71 in    
Wind  
Wind Speed 8 mph (WNW)    
Max Wind Speed 14 mph    
Max Gust Speed 17 mph    
Visibility 10 miles    
Events      
Averages and records for this station are not official NWS values.
T = Trace of Precipitation, MM = Missing Value Source: NWS Daily Summary

Daily Weather History Graph

Daily Weather History Graph

Search for Another Location

Airport:

Trip Planner

Search our weather history database for the weather conditions in past years. The results will help you decide how hot, cold, wet, or windy it might be!

Date:

Astronomy

Oct. 13, 2012 Rise Set
Actual Time 7:56 AM CDT 6:54 PM CDT
Civil Twilight 7:25 AM CDT 7:25 PM CDT
Nautical Twilight 6:49 AM CDT 8:00 PM CDT
Astronomical Twilight 6:13 AM CDT 8:36 PM CDT
Moon 5:42 AM CDT (10/13) 5:42 PM CDT (10/13)
Length of Visible Light 11h 59m
Length of Day
10h 57m
Waning Crescent, 5% of the Moon is Illuminated
Oct 13
Waning Crescent
Oct 15
New
Oct 21
First Quarter
Oct 29
Full
Nov 6
Last Quarter

Hourly Weather History & Observations

Time (CDT) Temp. Windchill Dew Point Humidity Pressure Visibility Wind Dir Wind Speed Gust Speed Precip Events Conditions
12:55 AM 39.2 °F 35.9 °F 28.4 °F 65% 29.67 in 10.0 mi SSE 4.6 mph - N/A   Clear
1:15 AM 41.0 °F 36.4 °F 28.4 °F 61% 29.66 in 10.0 mi South 6.9 mph - N/A   Clear
1:35 AM 41.0 °F 35.2 °F 30.2 °F 65% 29.64 in 10.0 mi SSW 9.2 mph - N/A   Clear
1:55 AM 42.8 °F 38.0 °F 32.0 °F 66% 29.64 in 10.0 mi SSW 8.1 mph - N/A   Clear
2:15 AM 42.8 °F 37.0 °F 32.0 °F 66% 29.63 in 10.0 mi SSW 10.4 mph - N/A   Clear
2:35 AM 41.0 °F 35.8 °F 32.0 °F 70% 29.62 in 10.0 mi SW 8.1 mph - N/A   Clear
2:55 AM 41.0 °F 37.1 °F 32.0 °F 70% 29.61 in 10.0 mi SSW 5.8 mph - N/A   Clear
3:15 AM 41.0 °F 34.3 °F 32.0 °F 70% 29.61 in 10.0 mi SW 11.5 mph - N/A   Clear
3:35 AM 41.0 °F 34.3 °F 32.0 °F 70% 29.61 in 10.0 mi SW 11.5 mph - N/A   Clear
3:55 AM 39.2 °F 32.5 °F 32.0 °F 75% 29.61 in 10.0 mi SW 10.4 mph - N/A   Clear
4:15 AM 37.4 °F - 32.0 °F 81% 29.61 in 10.0 mi Calm Calm - N/A   Clear
4:35 AM 37.4 °F 33.8 °F 32.0 °F 81% 29.61 in 10.0 mi SSW 4.6 mph - N/A   Clear
4:55 AM 35.6 °F 29.9 °F 32.0 °F 87% 29.62 in 10.0 mi SW 6.9 mph - N/A   Clear
5:15 AM 35.6 °F 29.2 °F 32.0 °F 87% 29.62 in 10.0 mi SSW 8.1 mph - N/A   Clear
5:35 AM 35.6 °F 29.9 °F 32.0 °F 87% 29.61 in 10.0 mi SW 6.9 mph - N/A   Clear
5:55 AM 35.6 °F 30.7 °F 32.0 °F 87% 29.62 in 10.0 mi SSW 5.8 mph - N/A   Clear
6:15 AM 35.6 °F 29.2 °F 32.0 °F 87% 29.62 in 10.0 mi SW 8.1 mph - N/A   Clear
6:35 AM 33.8 °F 27.7 °F 32.0 °F 93% 29.62 in 10.0 mi WSW 6.9 mph - N/A   Clear
6:55 AM 33.8 °F 27.0 °F 32.0 °F 93% 29.63 in 10.0 mi WSW 8.1 mph - N/A   Clear
7:15 AM 35.6 °F 28.0 °F 32.0 °F 87% 29.63 in 10.0 mi West 10.4 mph - N/A   Clear
7:35 AM 32.0 °F 23.6 °F 32.0 °F 100% 29.64 in 10.0 mi WSW 10.4 mph - N/A   Clear
7:55 AM 33.8 °F 26.4 °F 32.0 °F 93% 29.64 in 10.0 mi WSW 9.2 mph - N/A   Clear
8:15 AM 32.0 °F 23.6 °F 32.0 °F 100% 29.65 in 10.0 mi WSW 10.4 mph - N/A   Clear
8:55 AM 37.4 °F 32.1 °F 32.0 °F 81% 29.66 in 10.0 mi West 6.9 mph - N/A   Clear
9:35 AM 41.0 °F 36.4 °F 35.6 °F 81% 29.68 in 10.0 mi West 6.9 mph - N/A   Clear
9:55 AM 46.4 °F 44.3 °F 35.6 °F 66% 29.68 in 10.0 mi West 4.6 mph - N/A   Clear
10:15 AM 48.2 °F - 37.4 °F 66% 29.68 in 10.0 mi WNW 6.9 mph - N/A   Clear
10:35 AM 50.0 °F - 37.4 °F 62% 29.69 in 10.0 mi NW 10.4 mph - N/A   Clear
10:55 AM 51.8 °F - 37.4 °F 58% 29.69 in 10.0 mi NNW 9.2 mph - N/A   Clear
11:15 AM 53.6 °F - 37.4 °F 54% 29.69 in 10.0 mi NNW 8.1 mph - N/A   Clear
11:35 AM 53.6 °F - 37.4 °F 54% 29.70 in 10.0 mi NNW 8.1 mph - N/A   Clear
11:55 AM 53.6 °F - 37.4 °F 54% 29.70 in 10.0 mi North 8.1 mph - N/A   Clear
12:35 PM 55.4 °F - 35.6 °F 47% 29.71 in 10.0 mi North 8.1 mph - N/A   Clear
12:55 PM 55.4 °F - 35.6 °F 47% 29.71 in 10.0 mi North 8.1 mph - N/A   Clear
1:15 PM 57.2 °F - 35.6 °F 44% 29.71 in 10.0 mi NNW 8.1 mph - N/A   Clear
1:35 PM 57.2 °F - 35.6 °F 44% 29.72 in 10.0 mi NNW 6.9 mph - N/A   Clear
1:55 PM 59.0 °F - 35.6 °F 42% 29.72 in 10.0 mi NNW 8.1 mph 16.1 mph N/A   Clear
2:15 PM 59.0 °F - 35.6 °F 42% 29.72 in 10.0 mi NW 10.4 mph - N/A   Clear
2:35 PM 59.0 °F - 35.6 °F 42% 29.72 in 10.0 mi NNW 10.4 mph - N/A   Clear
3:35 PM 59.0 °F - 33.8 °F 39% 29.74 in 10.0 mi North 12.7 mph - N/A   Clear
3:55 PM 59.0 °F - 33.8 °F 39% 29.74 in 10.0 mi North 13.8 mph 17.3 mph N/A   Clear
4:15 PM 59.0 °F - 33.8 °F 39% 29.75 in 10.0 mi NNW 9.2 mph - N/A   Clear
4:35 PM 59.0 °F - 35.6 °F 42% 29.76 in 10.0 mi NNW 9.2 mph - N/A   Clear
4:55 PM 59.0 °F - 35.6 °F 42% 29.77 in 10.0 mi NW 11.5 mph 17.3 mph N/A   Clear
5:15 PM 59.0 °F - 35.6 °F 42% 29.77 in 10.0 mi NNW 8.1 mph - N/A   Clear
5:35 PM 59.0 °F - 35.6 °F 42% 29.78 in 10.0 mi NNW 8.1 mph - N/A   Clear
5:55 PM 57.2 °F - 35.6 °F 44% 29.79 in 10.0 mi NW 8.1 mph - N/A   Clear
6:15 PM 53.6 °F - 35.6 °F 51% 29.79 in 10.0 mi NNW 8.1 mph - N/A   Clear
6:35 PM 50.0 °F - 35.6 °F 58% 29.81 in 10.0 mi North 6.9 mph - N/A   Clear
7:35 PM 48.2 °F - 33.8 °F 58% 29.83 in 10.0 mi North 5.8 mph - N/A   Clear
7:55 PM 46.4 °F 43.5 °F 33.8 °F 62% 29.84 in 10.0 mi North 5.8 mph - N/A   Clear
8:15 PM 44.6 °F 41.4 °F 33.8 °F 66% 29.85 in 9.0 mi NNW 5.8 mph - N/A   Clear
9:15 PM 41.0 °F 37.1 °F 32.0 °F 70% 29.88 in 10.0 mi North 5.8 mph - N/A   Clear
9:35 PM 39.2 °F 35.0 °F 32.0 °F 75% 29.88 in 10.0 mi North 5.8 mph - N/A   Clear
9:55 PM 39.2 °F 37.0 °F 32.0 °F 75% 29.89 in 10.0 mi North 3.5 mph - N/A   Clear
10:15 PM 41.0 °F 39.0 °F 32.0 °F 70% 29.89 in 10.0 mi North 3.5 mph - N/A   Clear
11:15 PM 39.2 °F 37.0 °F 32.0 °F 75% 29.91 in 10.0 mi NNW 3.5 mph - N/A   Clear
11:35 PM 37.4 °F 32.8 °F 32.0 °F 81% 29.91 in 10.0 mi NW 5.8 mph - N/A   Clear
11:55 PM 35.6 °F 32.8 °F 32.0 °F 87% 29.91 in 10.0 mi NNW 3.5 mph - N/A   Clear